Regional Weather Roundup
Issued by NWS

Home | Current Version | Previous Version | Graphics & Text | Print | Product List | Glossary On
Versions: 1 2 3 4 5 6 7 8 9 10 11 12 13 14 15 16 17 18 19 20 21 22 23 24 25 26 27 28 29 30 31 32 33 34 35 36 37 38 39 40 41 42 43 44 45 46 47 48 49 50
000
ASUS45 KPSR 241610
RWRAZ

ARIZONA HOURLY REGIONAL WEATHER ROUNDUP
NATIONAL WEATHER SERVICE PHOENIX AZ
900 AM MST SUN MAY 24 2015

NOTE: FAIR INDICATES FEW OR NO CLOUDS BELOW 12,000 FEET WITH NO
SIGNIFICANT WEATHER AND/OR OBSTRUCTIONS TO VISIBILITY.

AZZ001>003-036-241700-
NORTHWEST ARIZONA

CITY           SKY/WX    TMP DP  RH WIND       PRES   REMARKS
BULLHEAD CITY  SUNNY     72  46  40 SW8       29.89S
KINGMAN        PTSUNNY   66  38  35 VRB3      29.97S
$$

AZZ004>008-015-016-018-241700-
NORTH CENTRAL ARIZONA

CITY           SKY/WX    TMP DP  RH WIND       PRES   REMARKS
GRAND CANYON   CLOUDY    45  38  76 SW9       30.07R
WILLIAMS       DRIZZLE   45  39  81 W9        30.15R
PRESCOTT       MOSUNNY   59  36  42 S9        30.03S
FLAGSTAFF      CLOUDY    49  36  61 W12       30.08R
PAYSON         MOSUNNY   59  36  41 W9        30.06R
PAGE           CLOUDY    57  50  77 CALM      29.97S
$$

AZZ009>014-017-241700-
NORTHEAST ARIZONA

CITY           SKY/WX    TMP DP  RH WIND       PRES   REMARKS
WINSLOW        MOSUNNY   61  36  39 CALM      30.00F
SAINT JOHNS    SUNNY     59  30  33 W13G22    30.01S
WINDOW ROCK    PTSUNNY   54  36  50 W10       30.03S
SHOW LOW       SUNNY     54  30  40 S13G21    30.07S
$$

AZZ023-241700-
GREATER PHOENIX AREA

CITY           SKY/WX    TMP DP  RH WIND       PRES   REMARKS
PHOENIX        MOSUNNY   74  42  31 VRB5      29.92S
BUCKEYE        MOSUNNY   73  41  31 W3        29.93S
GLENDALE       MOSUNNY   73  45  35 S6        29.94S
LUKE AFB       SUNNY     76  45  32 W7        29.91S
DEER VALLEY    SUNNY     71  43  36 W7        29.93S
SCOTTSDALE     SUNNY     72  41  32 CALM      29.95S
MESA-GATEWAY   SUNNY     70  43  37 N5        29.96R
CHANDLER       MOSUNNY   72  41  33 SE7       29.94R
$$

AZZ027-028-241700-
SOUTHWEST MARICOPA COUNTY AND PINAL COUNTY

CITY           SKY/WX    TMP DP  RH WIND       PRES   REMARKS
CASA GRANDE    SUNNY     72  39  30 SW3       29.93R
GILA BEND      FAIR      72  38  28 VRB5      29.92S
$$

AZZ503-504-507>509-241700-
SOUTHEAST ARIZONA

CITY           SKY/WX    TMP DP  RH WIND       PRES   REMARKS
TUCSON         SUNNY     70  36  28 SE5       29.98S
DAVIS-MONTHAN  SUNNY     70  36  28 E5        29.96S
RYAN FIELD       N/A     72  37  28 NW3       29.97S
NOGALES        SUNNY     67  35  30 VRB5      30.00S
SIERRA VISTA   SUNNY     64  29  27 NE6       30.02F
DOUGLAS        SUNNY     65  30  27 VRB3      30.02F
SAFFORD        SUNNY     70  32  24 CALM      29.97S
$$

AZZ020-021-025-026-031-241700-
SOUTHWEST ARIZONA

CITY           SKY/WX    TMP DP  RH WIND       PRES   REMARKS
YUMA           SUNNY     73  49  42 N5        29.91S
$$

CAZ031-033-041-043-047-048-061-241700-
SOUTHERN CALIFORNIA

CITY           SKY/WX    TMP DP  RH WIND       PRES   REMARKS
DOWNTOWN L.A.  CLOUDY    62  51  67 CALM      30.02S
L.A. AIRPORT   PTSUNNY   60  51  72 W7        30.03S
SAN DIEGO      PTSUNNY   63  48  58 SW5       30.05S
BURBANK        CLOUDY    60  50  69 CALM      30.02R
ONTARIO        CLOUDY    61  52  72 W10       30.01S
RIVERSIDE      CLOUDY    61  52  72 W8        30.02S
PALM SPRINGS   MOSUNNY   73  47  39 NW16      29.90F
EL CENTRO NAS  SUNNY     74  45  35 W16       29.91S
IMPERIAL       SUNNY     72  46  39 W13G22    29.89S
BLYTHE         MOSUNNY   69  52  54 S6        29.89S
NEEDLES        MOSUNNY   76  45  33 CALM      29.89S
$$

NVZ020-UTZ003-241700-
SOUTHERN NEVADA-UTAH

CITY           SKY/WX    TMP DP  RH WIND       PRES   REMARKS
LAS VEGAS      CLOUDY    70  48  45 SW6       29.88R
SALT LAKE CITY LGT RAIN  52  47  83 NE6       29.96S
$$

NMZ009-TXZ055-241700-
NEW MEXICO-WEST TEXAS

CITY           SKY/WX    TMP DP  RH WIND       PRES   REMARKS
ALBUQUERQUE    MOSUNNY   58  36  43 SW5       30.00F
EL PASO        SUNNY     71  29  21 SW12      30.00R
$$


........................KEY........................
SKY/WX - SKY CONDITION/WEATHER
TMP    - TEMPERATURE IN FAHRENHEIT
DP     - DEW POINT IN FAHRENHEIT
RH     - RELATIVE HUMIDITY IN PERCENT
WIND   - DIRECTION AND SPEED IN MILES PER HOUR (MPH)
VRB    - VARIABLE WIND DIRECTION
PRES   - MEAN SEA LEVEL PRESSURE IN INCHES OF MERCURY
         F - FALLING PRESSURE   R - RISING PRESSURE
         S - STEADY PRESSURE
VSB    - VISIBILITY IN MILES
HX     - HEAT INDEX IN FAHRENHEIT
WCI    - WIND CHILL INDEX IN FAHRENHEIT
TC     - TEMPERATURE IN CELSIUS WHICH IS ALSO KNOWN AS
         TEMPERATURE IN CENTIGRADE
AFB    - AIR FORCE BASE
         LUKE AFB IS LUKE AIR FORCE BASE
         DAVIS-MONTHAN IS DAVIS-MONTHAN AIR FORCE BASE
NAS    - NAVAL AIR STATION
         EL CENTRO NAS IS EL CENTRO NAVAL AIR STATION
N/A    - NOT AVAILABLE



USA.gov is the U.S. government's official web portal to all federal, state and local government web resources and services.